Location: The Saddle
(36.8333°N, 80.3417°W)
Time: 20:19:53
(UTC-05:00)

A-11 Canister half - Pass Details

Date: 14 December 2023
Orbit: 1512 x 1687 km, 47.2° (Epoch: 26 February)

Event Time Altitude Azimuth Distance (km) Brightness Sun altitude
Rises 22:58:45 0° 259° (W) 4,676 - -68.5°
Reaches altitude 10° 23:01:51 10° 264° (W) 3,710 - -69.0°
Maximum altitude 23:11:03 56° 341° (NNW) 1,828 - -70.5°
Drops below altitude 10° 23:20:37 10° 59° (ENE) 3,848 - -71.9°
Sets 23:23:55 0° 63° (ENE) 4,859 - -72.4°
